User: anonymous   Login
Location: Isola Pescaroli
(45.0500°N, 10.1667°E)
Time: 17:56:48
(UTC+00:00)
Language:

SL-4 R/B - Orbit

View from above orbital plane
View from above orbital plane
View from above satellite
View from above satellite

Ground track
Ground track

The orbit data is extracted from the following two-line orbital elements,

1 39679U 14021B   21206.78494792  .00000175  00000-0  26285-4 0  9993
2 39679  51.6178  34.8481 0169257 264.0569  94.1089 15.07036089399836
Epoch (UTC): 25 July 2021 18:50:19
Eccentricity: 0.0169257
inclination: 51.6178°
perigee height: 428 km
apogee height: 662 km
right ascension of ascending node: 34.8481°
argument of perigee: 264.0569°
revolutions per day: 15.07036089
mean anomaly at epoch: 94.1089°
orbit number at epoch: 39983

The dashed part of the orbit path shows where the satellite is in the earth's shadow,  

DLR